Find Starlink 2624

NORAD ID: 48358 Int'l Des: 2021-038 Owner: SPXS Country: US Constellation: starlink operational
LEOCIRCULAR

現在のビュー

3D地球を読み込み中...

About Starlink 2624

Starlink 2624 (NORAD 48358) is a starlink constellation satellite (v1.0) launched May 4, 2021 by SPXS of US. It operates in LEO, CIRCULAR orbit with a mass of 260.00 kg.

次回通過

Passes for default location (London). Set your location on the main map for personalized predictions.

高度履歴

Loading altitude history...

軌道要素

1 48358U 21038F 26263.30241954 -.00000459 00000-0 -30054-5 0 9996
2 48358 53.1641 172.4334 0001812 60.7201 299.3981 15.31699961296897
Epoch: Sep 20, 2026 • Age: 25 hours

現在のステータス

高度 476.0 km
遠地点 / 近地点 N/A
速度 7.63 km/s
衛星直下点 52.75°N, 115.51°E
打ち上げ日 May 4, 2021
運用期間 5.3 years
タイプ internet

技術仕様

分類 Payload
質量 260.00 kg
乾燥質量 248.00 kg
長さ 0.20 m
スパン 9.00 m
形状 ? Box + pan
製造者 SPXS
バスタイプ Starlink
フェーズステータス In Orbit
所有者/国 SPXS/US

Most Searched